Location: Karcze
(52.0945°N, 22.4786°E)
Time: 23:47:15
(UTC+00:00)

Transit 4A - All Passes

Search period start: 28 July 2021 00:00
Search period end: 07 August 2021 00:00
Orbit: 872 x 972 km, 66.8° (Epoch: 28 July)

Date Brightness Start Highest point End Pass type
(mag) Time Alt. Az. Time Alt. Az. Time Alt. Az.
28 Jul - 01:31:11 10° W 01:36:30 34° NNW 01:41:49 10° NNE visible
28 Jul - 03:20:26 10° NW 03:24:36 20° N 03:28:46 10° NE daylight
28 Jul - 05:08:21 10° NNW 05:13:01 24° NNE 05:17:43 10° ENE daylight
28 Jul - 06:54:45 10° NW 07:00:33 59° NE 07:06:24 10° SE daylight
28 Jul - 08:41:25 10° NW 08:46:40 35° WSW 08:51:58 10° S daylight
28 Jul - 22:08:49 10° SSE 22:13:15 22° ESE 22:17:39 10° ENE visible
28 Jul - 23:53:02 10° SW 23:58:57 84° NW 00:04:50 10° NE visible
29 Jul - 01:41:03 10° W 01:46:06 29° NNW 01:51:09 10° NNE visible
29 Jul - 03:30:17 10° NW 03:34:22 19° N 03:38:29 10° NE daylight
29 Jul - 05:17:44 10° NNW 05:22:41 27° NNE 05:27:41 10° E daylight
29 Jul - 07:04:03 10° NW 07:09:56 78° NE 07:15:53 10° SE daylight
29 Jul - 08:51:05 10° WNW 08:55:44 25° WSW 09:00:28 10° SSW daylight
29 Jul - 22:17:11 10° S 22:22:18 31° ESE 22:27:22 10° NE visible
30 Jul - 00:02:29 10° SW 00:08:19 64° NW 00:14:08 10° NE visible
30 Jul - 01:51:01 10° WNW 01:55:45 25° NNW 02:00:31 10° NNE visible
30 Jul - 03:40:01 10° NW 03:44:09 19° N 03:48:18 10° NE daylight
30 Jul - 05:27:03 10° NNW 05:32:18 33° NNE 05:37:35 10° E daylight
30 Jul - 07:13:22 10° NW 07:19:15 80° SW 07:25:11 10° SSE daylight
30 Jul - 09:00:59 10° WNW 09:04:45 18° WSW 09:08:32 10° SW daylight
30 Jul - 22:25:53 10° S 22:31:24 43° ESE 22:36:54 10° NE visible
31 Jul - 00:12:03 10° WSW 00:17:45 49° NW 00:23:25 10° NE visible
31 Jul - 02:00:59 10° WNW 02:05:28 22° NNW 02:09:56 10° NE visible
31 Jul - 03:49:38 10° NW 03:53:55 20° N 03:58:12 10° ENE daylight
31 Jul - 05:36:21 10° NNW 05:41:52 40° NE 05:47:24 10° ESE daylight
31 Jul - 07:22:44 10° NW 07:28:30 59° WSW 07:34:19 10° SSE daylight
31 Jul - 09:11:36 10° W 09:13:40 12° WSW 09:15:45 10° WSW daylight
31 Jul - 20:53:19 10° ESE 20:55:25 12° ESE 20:57:30 10° E visible
31 Jul - 22:34:49 10° SSW 22:40:35 60° ESE 22:46:20 10° NE visible
01 Aug - 00:21:45 10° WSW 00:27:14 39° NW 00:32:43 10° NNE visible
01 Aug - 02:10:56 10° WNW 02:15:12 20° N 02:19:28 10° NE visible
01 Aug - 03:59:09 10° NW 04:03:39 22° NNE 04:08:10 10° ENE daylight
01 Aug - 05:45:39 10° NW 05:51:21 50° NE 05:57:06 10° ESE daylight
01 Aug - 07:32:11 10° NW 07:37:41 43° WSW 07:43:15 10° S daylight
01 Aug - 21:00:34 10° SE 21:04:20 18° ESE 21:08:06 10° ENE visible
01 Aug - 22:43:57 10° SSW 22:49:50 81° SE 22:55:42 10° NE visible
02 Aug - 00:31:35 10° W 00:36:48 32° NNW 00:42:01 10° NNE visible
02 Aug - 02:20:50 10° NW 02:24:58 19° N 02:29:06 10° NE daylight
02 Aug - 04:08:34 10° NNW 04:13:22 25° NNE 04:18:09 10° ENE daylight
02 Aug - 05:54:57 10° NW 06:00:47 65° NE 06:06:41 10° SE daylight
02 Aug - 07:41:42 10° NW 07:46:47 31° WSW 07:51:55 10° S daylight
02 Aug - 21:08:39 10° SSE 21:13:20 25° ESE 21:18:01 10° ENE visible
02 Aug - 22:53:16 10° SW 22:59:09 76° NW 23:05:01 10° NE visible
03 Aug - 00:41:29 10° W 00:46:25 27° NNW 00:51:21 10° NNE visible
03 Aug - 02:30:39 10° NW 02:34:44 19° N 02:38:51 10° NE daylight
03 Aug - 04:17:56 10° NNW 04:23:00 29° NNE 04:28:06 10° E daylight
03 Aug - 06:04:15 10° NW 06:10:08 85° NE 06:16:07 10° SE daylight
03 Aug - 07:51:26 10° WNW 07:55:50 22° WSW 08:00:17 10° SSW daylight
03 Aug - 21:17:09 10° S 21:22:25 35° ESE 21:27:39 10° NE visible
03 Aug - 23:02:45 10° SW 23:08:33 58° NW 23:14:19 10° NE visible
04 Aug - 00:51:27 10° WNW 00:56:05 24° NNW 01:00:44 10° NNE visible
04 Aug - 02:40:20 10° NW 02:44:30 20° N 02:48:43 10° NE daylight
04 Aug - 04:27:16 10° NNW 04:32:36 35° NNE 04:37:59 10° E daylight
04 Aug - 06:13:35 10° NW 06:19:26 73° SW 06:25:22 10° SSE daylight
04 Aug - 08:01:30 10° WNW 08:04:49 16° WSW 08:08:09 10° SW daylight
04 Aug - 21:25:55 10° SSW 21:31:33 49° ESE 21:37:09 10° NE visible
04 Aug - 23:12:23 10° WSW 23:17:59 45° NW 23:23:37 10° NNE visible
05 Aug - 01:01:24 10° WNW 01:05:48 21° NNW 01:10:12 10° NE visible
05 Aug - 02:49:54 10° NW 02:54:16 21° NNE 02:58:38 10° ENE daylight
05 Aug - 04:36:33 10° NNW 04:42:08 43° NE 04:47:46 10° ESE daylight
05 Aug - 06:22:57 10° NW 06:28:39 53° WSW 06:34:25 10° SSE daylight
05 Aug - 08:13:09 10° W 08:13:43 10° W 08:14:18 10° WSW daylight
05 Aug - 19:52:37 10° SE 19:55:28 14° ESE 19:58:18 10° ENE visible
05 Aug - 21:34:57 10° SSW 21:40:45 67° ESE 21:46:33 10° NE visible
05 Aug - 23:22:08 10° W 23:27:30 36° NW 23:32:54 10° NNE visible
06 Aug - 01:11:21 10° NW 01:15:33 20° N 01:19:46 10° NE visible
06 Aug - 02:59:23 10° NNW 03:03:59 23° NNE 03:08:37 10° ENE daylight
06 Aug - 04:45:49 10° NW 04:51:36 55° NE 04:57:26 10° ESE daylight
06 Aug - 06:32:26 10° NW 06:37:48 38° WSW 06:43:16 10° S daylight
06 Aug - 20:00:17 10° SSE 20:04:25 20° ESE 20:08:33 10° ENE visible
06 Aug - 21:44:09 10° SW 21:50:02 89° E 21:55:54 10° NE visible
06 Aug - 23:31:58 10° W 23:37:05 30° NNW 23:42:13 10° NNE visible
